N7BDR Weather Reports


Display with metric or nautical units.
time (UTC)temp
F
wind
direction
speed
MPH
gust
MPH
rain 1hr
in
rain 24hr
in
rain mn
in
humidity
%
barometer
mb
20260901115243 62 238 0.0 5.0 0.00 0.14 0.00 67 1010.4
20260901114749 62 250 1.0 6.0 0.00 0.14 0.00 67 1010.3
20260901114246 62 234 1.0 6.0 0.00 0.14 0.00 66 1010.3
20260901113734 62 168 2.0 8.0 0.00 0.14 0.00 66 1010.3
20260901113228 62 305 2.0 8.0 0.00 0.14 0.00 67 1010.2
20260901112711 62 200 1.0 8.0 0.00 0.14 0.00 67 1010.2
20260901112156 62 275 2.0 8.0 0.00 0.14 0.00 67 1010.1
20260901111022 62 166 2.0 8.0 0.00 0.14 0.00 67 1010.2
20260901110521 62 191 2.0 7.0 0.00 0.14 0.00 67 1010.3
20260901110015 62 274 2.0 8.0 0.00 0.14 0.00 67 1010.4
20260901105513 62 247 2.0 8.0 0.00 0.14 0.00 67 1010.3
20260901105004 62 269 2.0 12.0 0.00 0.14 0.00 68 1010.3
20260901103233 62 171 2.0 12.0 0.00 0.14 0.00 68 1010.5
20260901102726 62 262 2.0 9.0 0.00 0.14 0.00 69 1010.4
20260901102212 62 248 2.0 9.0 0.00 0.14 0.00 69 1010.6
20260901101046 62 216 4.0 13.0 0.00 0.14 0.00 71 1010.4
20260901100546 62 253 4.0 13.0 0.00 0.14 0.00 71 1010.4
20260901095423 62 177 5.0 13.0 0.00 0.14 0.00 72 1010.5
20260901094253 62 270 4.0 12.0 0.00 0.14 0.00 72 1010.5
20260901093803 62 163 3.0 9.0 0.00 0.14 0.00 71 1010.6
20260901093244 62 246 2.0 12.0 0.00 0.14 0.00 71 1010.6
20260901092733 62 187 2.0 12.0 0.00 0.14 0.00 70 1010.6
20260901092233 62 238 3.0 12.0 0.00 0.14 0.00 70 1010.7
20260901091727 62 265 3.0 12.0 0.00 0.14 0.00 70 1010.6
20260901091225 62 197 3.0 11.0 0.00 0.14 0.00 69 1010.6
20260901090728 62 198 2.0 9.0 0.00 0.14 0.00 69 1010.6
20260901090231 62 272 2.0 9.0 0.00 0.14 0.00 69 1010.5
20260901085732 62 261 2.0 10.0 0.00 0.14 0.00 68 1010.4
20260901085229 62 175 2.0 10.0 0.00 0.14 0.00 68 1010.5
20260901084101 63 266 2.0 10.0 0.00 0.14 0.00 68 1010.6
20260901083546 63 249 2.0 7.0 0.00 0.14 0.00 67 1010.6
20260901083041 63 275 2.0 7.0 0.00 0.14 0.00 67 1010.7
20260901082528 63 206 1.0 6.0 0.00 0.14 0.00 67 1010.8
20260901082011 63 201 1.0 9.0 0.00 0.14 0.00 67 1010.7
20260901081459 63 156 1.0 9.0 0.00 0.14 0.00 67 1010.8
20260901081005 63 266 2.0 9.0 0.00 0.14 0.00 67 1010.9
20260901080500 63 234 2.0 9.0 0.00 0.14 0.00 67 1010.9
20260901080000 63 178 1.0 8.0 0.00 0.14 0.00 67 1010.9
20260901075505 63 201 1.0 6.0 0.00 0.14 0.00 68 1010.9
20260901075002 63 265 1.0 6.0 0.00 0.14 0.00 69 1010.8
20260901074447 63 236 1.0 6.0 0.00 0.14 0.00 68 1010.8
20260901073323 63 233 0.0 3.0 0.00 0.14 0.00 69 1011.1
20260901072156 63 293 0.0 0.0 0.00 0.14 0.00 70 1011.2
20260901071637 63 291 0.0 0.0 0.00 0.14 0.00 70 1011.2
20260901071144 63 358 0.0 1.0 0.00 0.14 0.00 70 1011.2
20260901070648 63 336 0.0 0.0 0.00 0.14 0.00 70 1011.3
20260901064919 64 234 0.0 3.0 0.00 0.14 0.00 68 1011.1
20260901064413 64 200 1.0 7.0 0.00 0.14 0.00 68 1011.1
20260901063310 64 163 2.0 10.0 0.00 0.14 0.00 68 1011.1
20260901062810 64 262 2.0 10.0 0.00 0.14 0.00 69 1011.1
20260901062313 64 174 3.0 10.0 0.00 0.14 0.00 69 1011.2
20260901061757 64 173 3.0 10.0 0.00 0.14 0.00 70 1011.2
20260901061250 64 248 2.0 9.0 0.00 0.14 0.00 71 1011.1
20260901060732 64 251 2.0 8.0 0.00 0.14 0.00 71 1011.0
20260901060215 64 263 3.0 8.0 0.00 0.14 0.00 70 1011.2
20260901055724 64 249 3.0 8.0 0.00 0.14 0.15 71 1011.1
20260901055209 64 260 2.0 9.0 0.00 0.14 0.15 72 1011.1
20260901054718 64 266 3.0 9.0 0.00 0.14 0.15 72 1011.0
20260901054211 64 165 3.0 12.0 0.00 0.14 0.15 71 1010.9
20260901053046 64 232 2.0 12.0 0.00 0.14 0.15 70 1011.3
20260901052538 64 255 2.0 12.0 0.00 0.14 0.15 70 1011.4
20260901052038 64 268 3.0 9.0 0.00 0.14 0.15 71 1011.5
20260901051538 64 273 4.0 12.0 0.00 0.14 0.15 71 1011.5
20260901051025 64 259 4.0 12.0 0.00 0.14 0.15 70 1011.5
20260901050521 64 254 5.0 12.0 0.00 0.14 0.15 69 1011.6
20260901045410 64 166 4.0 11.0 0.00 0.14 0.15 69 1011.5
20260901044856 64 264 2.0 11.0 0.00 0.14 0.15 69 1011.6
20260901044341 64 270 2.0 10.0 0.00 0.14 0.15 68 1011.7
20260901043238 63 264 1.0 7.0 0.00 0.14 0.15 69 1011.6
20260901042721 63 233 0.0 1.0 0.00 0.14 0.15 74 1011.6
20260901042232 63 309 0.0 2.0 0.00 0.14 0.15 74 1011.7
20260901041108 64 304 0.0 2.0 0.00 0.14 0.15 70 1011.6
20260901035930 64 237 0.0 5.0 0.00 0.14 0.15 67 1011.3
20260901035431 63 170 0.0 5.0 0.00 0.14 0.15 70 1011.2
20260901034936 63 172 0.0 3.0 0.00 0.14 0.15 72 1011.2
20260901033804 64 284 1.0 0.0 0.00 0.14 0.15 71 1011.4
20260901033301 64 251 2.0 12.0 0.00 0.14 0.15 70 1011.3
20260901032753 64 227 2.0 12.0 0.00 0.14 0.15 70 1011.3
20260901032247 64 232 2.0 12.0 0.00 0.14 0.15 70 1011.2
20260901031755 64 182 3.0 12.0 0.00 0.14 0.15 69 1011.3
20260901031255 64 280 3.0 8.0 0.00 0.14 0.15 69 1011.2
20260901030753 64 258 3.0 8.0 0.00 0.14 0.15 70 1011.1
20260901030247 64 220 2.0 7.0 0.00 0.14 0.15 70 1011.0
20260901025755 64 251 2.0 7.0 0.00 0.14 0.15 71 1010.8
20260901025305 64 273 3.0 7.0 0.00 0.14 0.15 72 1010.8
20260901024133 63 227 3.0 14.0 0.00 0.14 0.15 74 1010.8
20260901023637 63 271 4.0 14.0 0.00 0.14 0.15 74 1010.8
20260901023140 63 258 5.0 14.0 0.00 0.14 0.15 74 1010.6
20260901022645 63 265 5.0 14.0 0.00 0.14 0.15 74 1010.7
20260901022136 63 274 5.0 11.0 0.00 0.14 0.15 74 1010.6
20260901021014 63 239 3.0 14.0 0.00 0.14 0.15 72 1010.8
20260901020456 64 154 3.0 14.0 0.00 0.14 0.15 72 1010.9
20260901020004 64 221 4.0 14.0 0.00 0.14 0.15 71 1010.9
20260901015502 64 165 5.0 14.0 0.00 0.14 0.15 71 1010.9
20260901014953 64 272 4.0 12.0 0.00 0.14 0.15 71 1010.9
20260901014449 64 254 3.0 10.0 0.00 0.14 0.15 70 1011.1
20260901013932 64 221 3.0 9.0 0.00 0.14 0.15 71 1011.2
20260901013437 64 246 2.0 9.0 0.00 0.14 0.15 72 1011.2
20260901012922 64 178 1.0 8.0 0.00 0.14 0.15 73 1011.3
20260901012426 63 295 1.0 3.0 0.00 0.14 0.15 74 1011.5
20260901011913 63 185 1.0 11.0 0.00 0.14 0.15 73 1011.6
20260901011411 63 189 2.0 11.0 0.00 0.14 0.15 73 1011.7
20260901010909 63 156 3.0 11.0 0.00 0.14 0.15 73 1011.7
20260901010408 63 211 2.0 11.0 0.00 0.14 0.15 74 1011.8
20260901005906 63 174 2.0 11.0 0.00 0.14 0.15 77 1011.8
20260901004734 63 158 3.0 11.0 0.04 0.14 0.15 76 1011.7
20260901003634 63 223 5.0 15.0 0.04 0.14 0.15 76 1011.8
20260901003122 63 165 6.0 15.0 0.04 0.13 0.13 76 1011.8
20260901002003 64 184 6.0 18.0 0.09 0.13 0.13 76 1011.7
20260901001458 64 149 5.0 18.0 0.08 0.13 0.13 76 1011.8
20260901000951 64 146 6.0 15.0 0.09 0.12 0.12 77 1011.7
20260901000444 64 150 7.0 15.0 0.10 0.12 0.12 77 1011.6
20260831235947 64 204 4.0 13.0 0.09 0.10 0.10 78 1011.4
20260831235429 64 209 4.0 11.0 0.09 0.09 0.10 77 1011.2
20260831234910 64 260 4.0 11.0 0.12 0.09 0.09 74 1010.7
20260831234358 64 264 5.0 13.0 0.08 0.08 0.08 76 1010.7
20260831233843 65 258 7.0 13.0 0.09 0.06 0.06 76 1010.3
20260831233337 65 270 8.0 23.0 0.13 0.06 0.06 74 1009.8
20260831232206 67 251 7.0 23.0 0.27 0.03 0.03 67 1009.8
20260831231710 67 265 7.0 23.0 0.00 0.01 0.01 62 1010.0
20260831231156 68 252 6.0 24.0 0.00 0.01 0.01 63 1009.5
20260831230704 70 273 11.0 24.0 0.00 0.00 0.00 58 1009.1
20260831230203 72 245 13.0 24.0 0.00 0.00 0.00 49 1008.7
20260831225657 74 263 11.0 24.0 0.00 0.00 0.00 46 1008.4
20260831225158 76 246 7.0 23.0 0.00 0.00 0.00 45 1008.2
20260831224006 76 295 0.0 6.0 0.00 0.00 0.00 45 1007.5
20260831221547 79 256 3.0 9.0 0.00 0.00 0.00 50 1007.0
20260831221045 80 287 1.0 9.0 0.00 0.00 0.00 46 1006.8
20260831215909 82 272 0.0 3.0 0.00 0.00 0.00 43 1006.2
20260831215352 83 306 0.0 3.0 0.00 0.00 0.00 43 1006.3
20260831214853 84 311 1.0 8.0 0.00 0.00 0.00 40 1006.3
20260831214349 85 297 2.0 12.0 0.00 0.00 0.00 32 1006.4
20260831213852 85 226 4.0 12.0 0.00 0.00 0.00 32 1006.3
20260831212741 86 258 4.0 12.0 0.00 0.00 0.00 31 1006.4
20260831212240 86 167 3.0 10.0 0.00 0.00 0.00 31 1006.4
20260831211743 86 194 3.0 10.0 0.00 0.00 0.00 32 1006.4
20260831211251 86 274 2.0 10.0 0.00 0.00 0.00 32 1006.4
20260831210802 85 176 3.0 10.0 0.00 0.00 0.00 33 1006.5
20260831210256 85 206 3.0 13.0 0.00 0.00 0.00 32 1006.6
20260831205746 85 263 3.0 13.0 0.00 0.00 0.00 32 1006.6
20260831205256 85 237 5.0 13.0 0.00 0.00 0.00 33 1006.8
20260831204745 85 254 6.0 13.0 0.00 0.00 0.00 32 1006.9
20260831204235 85 191 5.0 13.0 0.00 0.00 0.00 32 1006.9
20260831203724 86 158 5.0 13.0 0.00 0.00 0.00 31 1007.0
20260831203228 86 211 4.0 10.0 0.00 0.00 0.00 31 1007.0
20260831202732 87 269 3.0 9.0 0.00 0.00 0.00 31 1007.0
20260831202214 87 152 4.0 9.0 0.00 0.00 0.00 33 1007.0
20260831201714 86 169 4.0 14.0 0.00 0.00 0.00 32 1007.1
20260831201203 86 257 5.0 14.0 0.00 0.00 0.00 32 1007.2
20260831200644 86 214 6.0 14.0 0.00 0.00 0.00 33 1007.5
20260831195522 86 234 4.0 12.0 0.00 0.00 0.00 35 1007.7
20260831195024 85 242 5.0 12.0 0.00 0.00 0.00 34 1007.8
20260831194523 85 217 4.0 12.0 0.00 0.00 0.00 34 1007.9
20260831194006 84 181 4.0 12.0 0.00 0.00 0.00 35 1008.0
20260831193500 83 279 3.0 12.0 0.00 0.00 0.00 35 1008.1
20260831192346 84 162 4.0 11.0 0.00 0.00 0.00 34 1008.4
20260831191844 84 282 5.0 11.0 0.00 0.00 0.00 35 1008.4
20260831191340 84 171 4.0 11.0 0.00 0.00 0.00 34 1008.5
20260831190846 84 212 4.0 11.0 0.00 0.00 0.00 36 1008.5
20260831190355 83 246 4.0 10.0 0.00 0.00 0.00 36 1008.6
20260831185208 82 246 5.0 13.0 0.00 0.00 0.00 36 1008.8
20260831184654 83 276 5.0 16.0 0.00 0.00 0.00 35 1008.8
20260831184202 83 247 5.0 16.0 0.00 0.00 0.00 36 1008.9
20260831183711 82 237 6.0 16.0 0.00 0.00 0.00 38 1008.9
20260831183207 81 164 5.0 16.0 0.00 0.00 0.00 39 1009.0
20260831182704 80 163 4.0 10.0 0.00 0.00 0.00 40 1009.1
20260831182155 79 176 3.0 10.0 0.00 0.00 0.00 39 1009.2
20260831181646 79 237 3.0 14.0 0.00 0.00 0.00 41 1009.4
20260831181140 79 222 3.0 11.0 0.00 0.00 0.00 42 1009.6
20260831180008 78 208 2.0 10.0 0.00 0.00 0.00 44 1009.6
20260831174833 77 180 2.0 10.0 0.00 0.00 0.00 46 1009.8
20260831174342 78 288 1.0 7.0 0.00 0.00 0.00 47 1009.8
20260831173841 77 174 0.0 6.0 0.00 0.00 0.00 48 1009.8
20260831172703 77 210 1.0 5.0 0.00 0.00 0.00 48 1009.9
20260831172145 77 170 0.0 2.0 0.00 0.00 0.00 48 1009.9
20260831170410 76 258 2.0 10.0 0.00 0.00 0.00 49 1010.0
20260831165912 76 204 4.0 10.0 0.00 0.00 0.00 48 1010.0
20260831165357 76 171 4.0 13.0 0.00 0.00 0.00 47 1010.0
20260831164857 77 197 4.0 13.0 0.00 0.00 0.00 46 1010.0
20260831164404 77 239 3.0 13.0 0.00 0.00 0.00 46 1010.0
20260831163912 77 185 2.0 13.0 0.00 0.00 0.00 46 1010.0
20260831162108 76 233 0.0 7.0 0.00 0.00 0.00 50 1009.8
20260831161607 76 270 0.0 7.0 0.00 0.00 0.00 50 1009.8
20260831161105 76 145 0.0 7.0 0.00 0.00 0.00 49 1009.8
20260831160600 76 244 0.0 4.0 0.00 0.00 0.00 49 1009.7
20260831160106 76 325 0.0 5.0 0.00 0.00 0.00 48 1009.7
20260831155611 76 241 0.0 3.0 0.00 0.00 0.00 47 1009.7
20260831154442 75 220 0.0 3.0 0.00 0.00 0.00 47 1009.9
20260831153310 74 85 0.0 1.0 0.00 0.00 0.00 45 1010.0
20260831152811 73 348 0.0 0.0 0.00 0.00 0.00 44 1010.0
20260831152312 73 353 0.0 1.0 0.00 0.00 0.00 43 1010.1
20260831151756 73 11 0.0 1.0 0.00 0.00 0.00 43 1010.1
20260831151306 73 326 0.0 2.0 0.00 0.00 0.00 45 1010.3
20260831150757 72 277 0.0 0.0 0.00 0.00 0.00 50 1010.3
20260831144346 70 258 1.0 5.0 0.00 0.00 0.00 62 1010.4
20260831143833 68 227 1.0 5.0 0.00 0.00 0.00 63 1010.4
20260831143317 67 266 0.0 5.0 0.00 0.00 0.00 65 1010.5
20260831142814 67 270 0.0 3.0 0.00 0.00 0.00 67 1010.5
20260831142312 66 271 0.0 3.0 0.00 0.00 0.00 68 1010.4
20260831141807 65 239 0.0 3.0 0.00 0.00 0.00 70 1010.3
20260831141315 64 239 0.0 3.0 0.00 0.00 0.00 72 1010.3
20260831140802 63 187 0.0 3.0 0.00 0.00 0.00 72 1010.4
20260831140303 63 226 0.0 3.0 0.00 0.00 0.00 73 1010.3
20260831135745 63 211 0.0 2.0 0.00 0.00 0.00 74 1010.4
20260831135231 63 265 0.0 0.0 0.00 0.00 0.00 74 1010.3
20260831134719 63 233 0.0 1.0 0.00 0.00 0.00 74 1010.2
20260831133543 61 257 0.0 0.0 0.00 0.00 0.00 79 1010.2
20260831133031 60 257 0.0 0.0 0.00 0.00 0.00 81 1010.0
20260831132530 59 258 0.0 0.0 0.00 0.00 0.00 82 1010.0
20260831131413 59 258 0.0 0.0 0.00 0.00 0.00 82 1010.0
20260831125635 59 263 0.0 0.0 0.00 0.00 0.00 81 1009.8
20260831125136 59 342 0.0 0.0 0.00 0.00 0.00 80 1009.8
20260831124626 59 343 0.0 0.0 0.00 0.00 0.00 79 1009.8
20260831124125 60 335 0.0 0.0 0.00 0.00 0.00 78 1009.9
20260831123631 60 335 0.0 0.0 0.00 0.00 0.00 78 1009.8
20260831122509 61 57 0.0 0.0 0.00 0.00 0.00 76 1009.8
20260831122001 61 57 0.0 0.0 0.00 0.00 0.00 75 1009.8
20260831121505 61 57 0.0 0.0 0.00 0.00 0.00 74 1009.9
20260831120955 62 322 0.0 0.0 0.00 0.00 0.00 73 1009.9
20260831115804 63 256 0.0 1.0 0.00 0.00 0.00 71 1009.8